Pos.Doss.NomPrenomTempsVit.Moy.Allure Pos. cat�gCat�gorie Points Club
1 4079 CARDILLON JOJO 00:18:48 7.98 00:07:31 ? OUPEYE JOG
2 4073 KEBRON QUENTIN 00:20:13 7.42 00:08:05 ? OUPEYE
3 4042 FRANCAIMONT PETRUS 00:22:47 6.58 00:09:07 ?
4 4199 LOUIS FRANCOIS 00:22:49 6.57 00:09:08 ? FORT AVENTURE
5 77 KALIN ANTOINE 00:25:04 5.98 00:10:02 1Garconss 12 � 15 ans 1000 CJPL
6 404 KERCKHOVE LUCA 00:26:20 5.7 00:10:32 2Garconss 12 � 15 ans 968 RFCL ATHLETISME
7 4008 DEFAWE ILYAS 00:26:39 5.63 00:10:40 ?
8 4236 TERWAGNE QUENTIN 00:29:29 5.09 00:11:48 ? RFCL
9 4130 WEBER STEPHANE 00:29:41 5.05 00:11:52 ? JCPMF
10 57 UELLENDAHL BENITO 00:30:05 4.99 00:12:02 3Garconss 12 � 15 ans 935 SC BTGENBACH/ AC EIFEL/ HAUTES FAGNES
11 4243 RINGLET SOPHIAN 00:30:31 4.92 00:12:12 ?
12 199 MAHY ALEX 00:30:38 4.9 00:12:15 4Garconss 12 � 15 ans 903
13 4225 MASAR NATHALIE 00:30:54 4.85 00:12:22 ?
14 4239 WELLENDAHL JENS 00:31:11 4.81 00:12:28 ? TIERHEIM SCHOPPEN
15 4292 REINDERS THIERRY 00:31:31 4.76 00:12:36 ?
16 4281 DUFLOT PATRICK 00:31:56 4.7 00:12:46 ?
17 4072 BOSCOLE MANUEL 00:32:06 4.67 00:12:50 ? JIA
18 4321 LABALUE SOPHIE 00:34:27 4.35 00:13:47 ?
19 3 HOMBOURG SHANA 00:37:21 4.02 00:14:56 ?
20 4247 GRAYET CAROLINE 00:37:36 3.99 00:15:02 ?
21 4135 VANDEWEYER LUDIVINE 00:38:19 3.91 00:15:20 ? SERUNNERS
22 4021 LEON VICTOR 00:38:56 3.85 00:15:34 ? SERUNNERS
23 4069 BURLET VALERIE 00:38:57 3.85 00:15:35 ? ZATAC
24 4101 CHIANESE DOMENICO 00:44:15 3.39 00:17:42 ? SERUNNERS
25 4291 FONTAINE CHRISTIAN 00:45:08 3.32 00:18:03 ? SERAING RUNNERS
26 4035 NIZET CHRISTIAN 00:45:09 3.32 00:18:04 ? SERUNNERS
27 4025 FOURNY PHILIPPE 00:46:09 3.25 00:18:28 ? SERUNNERS
28 4221 BORUS CLAIRE 00:50:19 2.98 00:20:08 ? RUNNERS SERAING
29 4124 LECLOU ANNE MARIE 00:52:47 2.84 00:21:07 ? SERUNNERS
30 4188 ISTA RENE 00:52:47 2.84 00:21:07 ?
31 4041 TONACHELLA CLAUDIA 00:52:48 2.84 00:21:07 ? SERUNNERS
32 4109 IUSSA MARIE 00:54:00 2.78 00:21:36 ? SERUNNERS
Fort Adventure Chaudf. 2022
Distance : 2.5 kms
32 coureurs